129  
ASUS43 KFSD 172310  
RWRFSD  
 
WEATHER ROUNDUP FOR SE SOUTH DAKOTA/SW MINNESOTA/NW IOWA  
NATIONAL WEATHER SERVICE SIOUX FALLS SD  
500 PM CST THU JAN 17 2019  
 
NOTE: "FAIR" INDICATES FEW OR NO CLOUDS BELOW 12,000 FEET WITH NO  
SIGNIFICANT WEATHER AND OR S TO VISIBILITY
.  
 
 
SDZ038>040-050-052>070-180000-  
SOUTHEAST SOUTH DAKOTA  
 
CITY SKY/WX TMP DP RH WIND PRES REMARKS
 
BROOKINGS CLOUDY 20 15 81 N5 30.10 WCI 13  
CHAMBERLAIN CLOUDY 23 23 99 CALM 30.10R  
HURON CLOUDY 21 15 78 NE3 30.13R  
MADISON N/A 19 18 93 N5 30.09F WCI 13  
MITCHELL CLOUDY 22 16 78 CALM 30.14R  
SIOUX FALLS CLOUDY 22 15 75 N6 30.10F WCI 14  
WINNER CLOUDY 22 18 85 CALM 30.07R  
YANKTON CLOUDY 25 22 88 NE3 30.12S  

 
 
MNZ071-072-080-081-089-090-097-098-180000-  
SOUTHWEST MINNESOTA  
 
CITY SKY/WX TMP DP RH WIND PRES REMARKS
 
FAIRMONT CLEAR 17 10 74 NW9 30.11F WCI 6  
JACKSON CLEAR 18 9 68 NW8 30.10S WCI 7  
LUVERNE CLEAR 23 14 68 N8 30.11S WCI 14  
MARSHALL CLOUDY 16 7 67 NW7 30.16R WCI 6  
MONTEVIDEO CLOUDY 12 5 73 N8 30.17 WCI 1  
PIPESTONE CLOUDY 19 12 73 N3 30.10R  
REDWOOD FALLS CLOUDY 16 6 65 N7 30.15R WCI 6  
TRACY CLOUDY 16 9 72 NW6 30.12F WCI 8  
WINDOM CLEAR 16 9 73 NW10 30.10S WCI 3  
WORTHINGTON CLEAR 18 8 65 N10 30.10S WCI 6  

 
 
IAZ001>003-012>014-020>022-031-032-NEZ013-014-SDZ071-180000-  
NORTHWEST IOWA  
 
CITY SKY/WX TMP DP RH WIND PRES REMARKS
 
CHEROKEE CLOUDY 24 20 83 NW6 30.11S WCI 17  
DENISON CLOUDY 28 21 74 N6 30.12R WCI 22  
ESTHERVILLE CLEAR 16 9 74 N8 30.10R WCI 5  
ORANGE CITY CLOUDY 25 21 86 NW6 30.10S WCI 18  
SHELDON CLEAR 23 18 80 N9 30.08F WCI 13  
SIOUX CITY CLOUDY 27 20 75 N3 30.13S  
SPENCER CLEAR 23 13 65 N9 30.10R WCI 13  
STORM LAKE CLOUDY 25 21 86 NW8 30.09S WCI 16  

 
 
ABBREVIATIONS USED IN REMARKS  
TC - TEMPERATURE IN CELSIUS  
WCI - WIND CHILL INDEX  
HX - HEAT INDEX  
VSB - VISIBILITY  
 
 
 
CLICK HERE TO GO TO PREVIOUS BULLETINS.

The Nexlab SD Page
The Nexlab IA Page
The Nexlab MN Page
The Nexlab NE Page Main Text Page